START_TIME,STEP,MOV.,E45,t_acc.,ALAR?,t_acc.,A12,t_acc.,A24,t_acc.
1979-03-10 18:00:23.830 ,7,0,5.,4.8,212.,4.8,0.,4.8,0.,4.8
1979-03-10 18:00:28.630 ,7,0,5.,4.8,244.,4.8,0.,4.8,0.,4.8
1979-03-10 18:00:33.430 ,7,0,1.,4.8,256.,4.8,0.,4.8,0.,4.8
1979-03-10 18:00:38.230 ,7,0,4.,4.8,236.,4.8,0.,4.8,0.,4.8
1979-03-10 18:00:43.030 ,7,0,5.,4.8,220.,4.8,0.,4.8,0.,4.8
1979-03-10 18:00:47.830 ,6,0,2.,4.8,256.,4.8,0.,4.8,0.,4.8
1979-03-10 18:00:52.630 ,6,0,1.,4.8,232.,4.8,0.,4.8,0.,4.8
1979-03-10 18:00:57.430 ,6,0,4.,4.8,244.,4.8,0.,4.8,0.,4.8
1979-03-10 18:01:02.230 ,6,0,2.,4.8,236.,4.8,0.,4.8,0.,4.8
1979-03-10 18:01:07.030 ,6,0,3.,4.8,224.,4.8,0.,4.8,0.,4.8
1979-03-10 18:01:11.830 ,5,0,1.,4.8,204.,4.8,0.,4.8,0.,4.8
1979-03-10 18:01:16.630 ,5,0,7.,4.8,248.,4.8,0.,4.8,0.,4.8
1979-03-10 18:01:21.430 ,5,0,3.,4.8,224.,4.8,0.,4.8,0.,4.8
1979-03-10 18:01:26.230 ,5,0,4.,4.8,228.,4.8,0.,4.8,0.,4.8
1979-03-10 18:01:31.030 ,5,0,5.,4.8,248.,4.8,0.,4.8,0.,4.8
1979-03-10 18:01:35.830 ,4,0,5.,4.8,264.,4.8,0.,4.8,0.,4.8
1979-03-10 18:01:40.630 ,4,0,5.,4.8,240.,4.8,0.,4.8,0.,4.8
1979-03-10 18:01:45.430 ,4,0,3.,4.8,220.,4.8,0.,4.8,0.,4.8
1979-03-10 18:01:50.230 ,4,0,3.,4.8,212.,4.8,0.,4.8,0.,4.8
1979-03-10 18:01:55.030 ,4,0,3.,4.8,236.,4.8,0.,4.8,0.,4.8
1979-03-10 18:01:59.830 ,3,0,6.,4.8,220.,4.8,0.,4.8,0.,4.8
1979-03-10 18:02:04.630 ,3,0,5.,4.8,252.,4.8,0.,4.8,0.,4.8
1979-03-10 18:02:09.430 ,3,0,4.,4.8,228.,4.8,0.,4.8,0.,4.8
1979-03-10 18:02:14.230 ,3,0,4.,4.8,220.,4.8,0.,4.8,0.,4.8
1979-03-10 18:02:19.030 ,3,0,1.,4.8,216.,4.8,0.,4.8,0.,4.8
1979-03-10 18:02:23.830 ,2,0,3.,4.8,240.,4.8,0.,4.8,0.,4.8
1979-03-10 18:02:28.630 ,2,0,4.,4.8,244.,4.8,0.,4.8,0.,4.8
1979-03-10 18:02:33.430 ,2,0,5.,4.8,232.,4.8,0.,4.8,0.,4.8
1979-03-10 18:02:38.230 ,2,0,3.,4.8,228.,4.8,0.,4.8,0.,4.8
1979-03-10 18:02:43.030 ,2,0,5.,4.8,240.,4.8,0.,4.8,0.,4.8
1979-03-10 18:02:47.830 ,1,0,3.,4.8,256.,4.8,0.,4.8,0.,4.8
1979-03-10 18:02:52.630 ,1,0,1.,4.8,224.,4.8,0.,4.8,0.,4.8
1979-03-10 18:02:57.430 ,1,0,5.,4.8,240.,4.8,0.,4.8,0.,4.8
1979-03-10 18:03:02.230 ,1,0,1.,4.8,256.,4.8,0.,4.8,0.,4.8
1979-03-10 18:03:07.030 ,1,0,2.,4.8,252.,4.8,0.,4.8,0.,4.8
1979-03-10 18:03:11.830 ,0,0,7.,4.8,236.,4.8,0.,4.8,0.,4.8
1979-03-10 18:03:16.630 ,0,0,7.,4.8,264.,4.8,0.,4.8,0.,4.8
1979-03-10 18:03:21.430 ,0,0,3.,4.8,256.,4.8,0.,4.8,0.,4.8
1979-03-10 18:03:26.230 ,0,0,6.,4.8,256.,4.8,0.,4.8,0.,4.8
1979-03-10 18:03:31.030 ,0,0,4.,4.8,264.,4.8,0.,4.8,0.,4.8
1979-03-10 18:03:35.830 ,0,0,5.,4.8,240.,4.8,0.,4.8,0.,4.8
1979-03-10 18:03:40.630 ,0,0,1.,4.8,252.,4.8,0.,4.8,0.,4.8
1979-03-10 18:03:45.430 ,0,0,4.,4.8,256.,4.8,0.,4.8,0.,4.8
1979-03-10 18:03:50.230 ,0,0,5.,4.8,256.,4.8,0.,4.8,0.,4.8
1979-03-10 18:03:55.030 ,0,0,3.,4.8,240.,4.8,0.,4.8,0.,4.8
1979-03-10 18:03:59.830 ,1,0,2.,4.8,256.,4.8,0.,4.8,0.,4.8
1979-03-10 18:04:04.630 ,1,0,3.,4.8,272.,4.8,0.,4.8,0.,4.8
1979-03-10 18:04:09.430 ,1,0,1.,4.8,252.,4.8,0.,4.8,0.,4.8
1979-03-10 18:04:14.230 ,1,0,3.,4.8,244.,4.8,0.,4.8,0.,4.8
1979-03-10 18:04:19.030 ,1,0,5.,4.8,240.,4.8,0.,4.8,0.,4.8
1979-03-10 18:04:23.830 ,2,0,3.,4.8,224.,4.8,0.,4.8,0.,4.8
1979-03-10 18:04:28.630 ,2,0,10.,4.8,220.,4.8,0.,4.8,0.,4.8
1979-03-10 18:04:33.430 ,2,0,3.,4.8,252.,4.8,0.,4.8,0.,4.8
1979-03-10 18:04:38.230 ,2,0,2.,4.8,248.,4.8,0.,4.8,0.,4.8
1979-03-10 18:04:43.030 ,2,0,2.,4.8,236.,4.8,0.,4.8,0.,4.8
1979-03-10 18:04:47.830 ,3,0,5.,4.8,240.,4.8,0.,4.8,0.,4.8
1979-03-10 18:04:52.630 ,3,0,6.,4.8,216.,4.8,0.,4.8,0.,4.8
1979-03-10 18:04:57.430 ,3,0,3.,4.8,220.,4.8,0.,4.8,0.,4.8
1979-03-10 18:05:02.230 ,3,0,0.,4.8,240.,4.8,0.,4.8,0.,4.8
1979-03-10 18:05:07.030 ,3,0,1.,4.8,256.,4.8,0.,4.8,0.,4.8
1979-03-10 18:05:11.830 ,4,0,5.,4.8,236.,4.8,0.,4.8,0.,4.8
1979-03-10 18:05:16.630 ,4,0,4.,4.8,208.,4.8,0.,4.8,0.,4.8
1979-03-10 18:05:21.430 ,4,0,6.,4.8,248.,4.8,0.,4.8,0.,4.8
1979-03-10 18:05:26.230 ,4,0,3.,4.8,264.,4.8,0.,4.8,0.,4.8
1979-03-10 18:05:31.030 ,4,0,9.,4.8,256.,4.8,0.,4.8,0.,4.8
1979-03-10 18:05:35.830 ,5,0,7.,4.8,256.,4.8,0.,4.8,0.,4.8
1979-03-10 18:05:40.630 ,5,0,6.,4.8,236.,4.8,0.,4.8,0.,4.8
1979-03-10 18:05:45.430 ,5,0,4.,4.8,272.,4.8,0.,4.8,0.,4.8
1979-03-10 18:05:50.230 ,5,0,8.,4.8,252.,4.8,0.,4.8,0.,4.8
1979-03-10 18:05:55.030 ,5,0,7.,4.8,252.,4.8,0.,4.8,0.,4.8
1979-03-10 18:05:59.830 ,6,0,3.,4.8,252.,4.8,0.,4.8,0.,4.8
1979-03-10 18:06:04.630 ,6,0,6.,4.8,256.,4.8,0.,4.8,0.,4.8
1979-03-10 18:06:09.430 ,6,0,5.,4.8,256.,4.8,0.,4.8,0.,4.8
1979-03-10 18:06:14.230 ,6,0,2.,4.8,296.,4.8,0.,4.8,0.,4.8
1979-03-10 18:06:19.030 ,6,0,3.,4.8,272.,4.8,0.,4.8,0.,4.8
1979-03-10 18:06:23.830 ,7,0,4.,4.8,236.,4.8,0.,4.8,0.,4.8
1979-03-10 18:06:28.630 ,7,0,0.,4.8,236.,4.8,0.,4.8,0.,4.8
1979-03-10 18:06:33.430 ,7,0,2.,4.8,280.,4.8,0.,4.8,0.,4.8
1979-03-10 18:06:38.230 ,7,0,5.,4.8,224.,4.8,0.,4.8,0.,4.8
1979-03-10 18:06:43.030 ,7,0,3.,4.8,244.,4.8,0.,4.8,0.,4.8
1979-03-10 18:06:47.830 ,7,0,4.,4.8,212.,4.8,0.,4.8,0.,4.8
1979-03-10 18:06:52.630 ,7,0,1.,4.8,220.,4.8,0.,4.8,0.,4.8
1979-03-10 18:06:57.430 ,7,0,4.,4.8,252.,4.8,0.,4.8,0.,4.8
1979-03-10 18:07:02.230 ,7,0,6.,4.8,220.,4.8,0.,4.8,0.,4.8
1979-03-10 18:07:07.030 ,7,0,3.,4.8,232.,4.8,0.,4.8,0.,4.8
1979-03-10 18:07:11.830 ,6,0,5.,4.8,220.,4.8,0.,4.8,0.,4.8
1979-03-10 18:07:16.630 ,6,0,2.,4.8,196.,4.8,0.,4.8,0.,4.8
1979-03-10 18:07:21.430 ,6,0,4.,4.8,236.,4.8,0.,4.8,0.,4.8
1979-03-10 18:07:26.230 ,6,0,5.,4.8,256.,4.8,0.,4.8,0.,4.8
1979-03-10 18:07:31.030 ,6,0,4.,4.8,236.,4.8,0.,4.8,0.,4.8
1979-03-10 18:07:35.830 ,5,0,2.,4.8,248.,4.8,0.,4.8,0.,4.8
1979-03-10 18:07:40.630 ,5,0,3.,4.8,236.,4.8,0.,4.8,0.,4.8
1979-03-10 18:07:45.430 ,5,0,2.,4.8,256.,4.8,0.,4.8,0.,4.8
1979-03-10 18:07:50.230 ,5,0,4.,4.8,256.,4.8,0.,4.8,0.,4.8
1979-03-10 18:07:55.030 ,5,0,5.,4.8,264.,4.8,0.,4.8,0.,4.8
1979-03-10 18:07:59.830 ,4,0,2.,4.8,280.,4.8,0.,4.8,0.,4.8
1979-03-10 18:08:04.630 ,4,0,3.,4.8,272.,4.8,0.,4.8,0.,4.8
1979-03-10 18:08:09.430 ,4,0,4.,4.8,256.,4.8,0.,4.8,0.,4.8
1979-03-10 18:08:14.230 ,4,0,0.,4.8,280.,4.8,0.,4.8,0.,4.8
1979-03-10 18:08:19.030 ,4,0,7.,4.8,248.,4.8,0.,4.8,0.,4.8
1979-03-10 18:08:23.830 ,3,0,5.,4.8,272.,4.8,0.,4.8,0.,4.8
1979-03-10 18:08:28.630 ,3,0,3.,4.8,280.,4.8,0.,4.8,0.,4.8
1979-03-10 18:08:33.430 ,3,0,8.,4.8,236.,4.8,0.,4.8,0.,4.8
1979-03-10 18:08:38.230 ,3,0,4.,4.8,264.,4.8,0.,4.8,0.,4.8
1979-03-10 18:08:43.030 ,3,0,5.,4.8,248.,4.8,0.,4.8,0.,4.8
1979-03-10 18:08:47.830 ,2,0,10.,4.8,256.,4.8,0.,4.8,0.,4.8
1979-03-10 18:08:52.630 ,2,0,5.,4.8,244.,4.8,0.,4.8,0.,4.8
1979-03-10 18:08:57.430 ,2,0,3.,4.8,256.,4.8,0.,4.8,0.,4.8
1979-03-10 18:09:02.230 ,2,0,4.,4.8,244.,4.8,0.,4.8,0.,4.8
1979-03-10 18:09:07.030 ,2,0,3.,4.8,228.,4.8,0.,4.8,0.,4.8
1979-03-10 18:09:11.830 ,1,0,3.,4.8,296.,4.8,0.,4.8,0.,4.8
1979-03-10 18:09:16.630 ,1,0,8.,4.8,272.,4.8,0.,4.8,0.,4.8
1979-03-10 18:09:21.430 ,1,0,2.,4.8,264.,4.8,0.,4.8,0.,4.8
1979-03-10 18:09:26.230 ,1,0,3.,4.8,236.,4.8,0.,4.8,0.,4.8
1979-03-10 18:09:31.030 ,1,0,3.,4.8,240.,4.8,0.,4.8,0.,4.8
1979-03-10 18:09:35.830 ,0,0,2.,4.8,236.,4.8,0.,4.8,0.,4.8
1979-03-10 18:09:40.630 ,0,0,1.,4.8,252.,4.8,0.,4.8,0.,4.8
1979-03-10 18:09:45.430 ,0,0,4.,4.8,248.,4.8,0.,4.8,0.,4.8
1979-03-10 18:09:50.230 ,0,0,3.,4.8,256.,4.8,0.,4.8,0.,4.8
1979-03-10 18:09:55.030 ,0,0,1.,4.8,240.,4.8,0.,4.8,0.,4.8
1979-03-10 18:09:59.830 ,0,0,7.,4.8,240.,4.8,0.,4.8,0.,4.8
1979-03-10 18:10:04.630 ,0,0,2.,4.8,220.,4.8,0.,4.8,0.,4.8
1979-03-10 18:10:09.430 ,0,0,3.,4.8,232.,4.8,0.,4.8,0.,4.8
1979-03-10 18:10:14.230 ,0,0,1.,4.8,252.,4.8,0.,4.8,0.,4.8
1979-03-10 18:10:19.030 ,0,0,1.,4.8,272.,4.8,0.,4.8,0.,4.8
1979-03-10 18:10:23.830 ,1,0,6.,4.8,228.,4.8,0.,4.8,0.,4.8
1979-03-10 18:10:28.630 ,1,0,10.,4.8,240.,4.8,0.,4.8,0.,4.8
1979-03-10 18:10:33.430 ,1,0,2.,4.8,220.,4.8,0.,4.8,0.,4.8
1979-03-10 18:10:38.230 ,1,0,3.,4.8,256.,4.8,0.,4.8,0.,4.8
1979-03-10 18:10:43.030 ,1,0,3.,4.8,256.,4.8,0.,4.8,0.,4.8
1979-03-10 18:10:47.830 ,2,0,3.,4.8,220.,4.8,0.,4.8,0.,4.8
1979-03-10 18:10:52.630 ,2,0,5.,4.8,272.,4.8,0.,4.8,0.,4.8
1979-03-10 18:10:57.430 ,2,0,4.,4.8,252.,4.8,0.,4.8,0.,4.8
1979-03-10 18:11:02.230 ,2,0,3.,4.8,232.,4.8,0.,4.8,0.,4.8
1979-03-10 18:11:07.030 ,2,0,4.,4.8,236.,4.8,0.,4.8,0.,4.8
1979-03-10 18:11:11.830 ,3,0,5.,4.8,248.,4.8,0.,4.8,0.,4.8
1979-03-10 18:11:16.630 ,3,0,2.,4.8,236.,4.8,0.,4.8,0.,4.8
1979-03-10 18:11:21.430 ,3,0,2.,4.8,256.,4.8,0.,4.8,0.,4.8
1979-03-10 18:11:26.230 ,3,0,3.,4.8,244.,4.8,0.,4.8,0.,4.8
1979-03-10 18:11:31.030 ,3,0,6.,4.8,244.,4.8,0.,4.8,0.,4.8
1979-03-10 18:11:35.830 ,4,0,2.,4.8,248.,4.8,0.,4.8,0.,4.8
1979-03-10 18:11:40.630 ,4,0,7.,4.8,256.,4.8,0.,4.8,0.,4.8
1979-03-10 18:11:45.430 ,4,0,4.,4.8,264.,4.8,0.,4.8,0.,4.8
1979-03-10 18:11:50.230 ,4,0,4.,4.8,228.,4.8,0.,4.8,0.,4.8
1979-03-10 18:11:55.030 ,4,0,5.,4.8,264.,4.8,0.,4.8,0.,4.8
1979-03-10 18:11:59.830 ,5,0,3.,4.8,252.,4.8,0.,4.8,0.,4.8
1979-03-10 18:12:04.630 ,5,0,3.,4.8,256.,4.8,0.,4.8,0.,4.8
1979-03-10 18:12:09.430 ,5,0,2.,4.8,216.,4.8,0.,4.8,0.,4.8
1979-03-10 18:12:14.230 ,5,0,9.,4.8,232.,4.8,0.,4.8,0.,4.8
1979-03-10 18:12:19.030 ,5,0,3.,4.8,244.,4.8,0.,4.8,0.,4.8
1979-03-10 18:12:23.830 ,6,0,5.,4.8,264.,4.8,0.,4.8,0.,4.8
1979-03-10 18:12:28.630 ,6,0,4.,4.8,248.,4.8,0.,4.8,0.,4.8
1979-03-10 18:12:33.430 ,6,0,,0,,0,,0,,0
1979-03-10 18:12:38.230 ,6,0,2.,4.8,212.,4.8,0.,4.8,0.,4.8
1979-03-10 18:12:43.030 ,6,0,6.,4.8,228.,4.8,0.,4.8,0.,4.8
1979-03-10 18:12:47.830 ,7,0,4.,4.8,272.,4.8,0.,4.8,0.,4.8
1979-03-10 18:12:52.630 ,7,0,8.,4.8,312.,4.8,0.,4.8,0.,4.8
1979-03-10 18:12:57.430 ,7,0,1.,4.8,320.,4.8,0.,4.8,0.,4.8
1979-03-10 18:13:02.230 ,7,0,5.,4.8,312.,4.8,0.,4.8,0.,4.8
1979-03-10 18:13:07.030 ,7,0,3.,4.8,296.,4.8,0.,4.8,0.,4.8
1979-03-10 18:13:11.830 ,7,0,3.,4.8,304.,4.8,0.,4.8,0.,4.8
1979-03-10 18:13:16.630 ,7,0,6.,4.8,304.,4.8,0.,4.8,0.,4.8
1979-03-10 18:13:21.430 ,7,0,1.,4.8,288.,4.8,0.,4.8,0.,4.8
1979-03-10 18:13:26.230 ,7,0,1.,4.8,312.,4.8,0.,4.8,0.,4.8
1979-03-10 18:13:31.030 ,7,0,3.,4.8,312.,4.8,0.,4.8,0.,4.8
1979-03-10 18:13:35.830 ,6,0,2.,4.8,304.,4.8,0.,4.8,0.,4.8
1979-03-10 18:13:40.630 ,6,0,5.,4.8,272.,4.8,0.,4.8,0.,4.8
1979-03-10 18:13:45.430 ,6,0,1.,4.8,296.,4.8,0.,4.8,0.,4.8
1979-03-10 18:13:50.230 ,6,0,5.,4.8,296.,4.8,0.,4.8,0.,4.8
1979-03-10 18:13:55.030 ,6,0,5.,4.8,272.,4.8,0.,4.8,0.,4.8
1979-03-10 18:13:59.830 ,5,0,4.,4.8,272.,4.8,0.,4.8,0.,4.8
1979-03-10 18:14:04.630 ,5,0,1.,4.8,288.,4.8,0.,4.8,0.,4.8
1979-03-10 18:14:09.430 ,5,0,2.,4.8,228.,4.8,0.,4.8,0.,4.8
1979-03-10 18:14:14.230 ,5,0,3.,4.8,264.,4.8,0.,4.8,0.,4.8
1979-03-10 18:14:19.030 ,5,0,2.,4.8,232.,4.8,0.,4.8,0.,4.8
1979-03-10 18:14:23.830 ,4,0,3.,4.8,256.,4.8,0.,4.8,0.,4.8
1979-03-10 18:14:28.630 ,4,0,3.,4.8,256.,4.8,0.,4.8,0.,4.8
1979-03-10 18:14:33.430 ,4,0,4.,4.8,336.,4.8,0.,4.8,0.,4.8
1979-03-10 18:14:38.230 ,4,0,7.,4.8,272.,4.8,0.,4.8,0.,4.8
1979-03-10 18:14:43.030 ,4,0,3.,4.8,236.,4.8,0.,4.8,0.,4.8
1979-03-10 18:14:47.830 ,3,0,6.,4.8,248.,4.8,0.,4.8,0.,4.8
1979-03-10 18:14:52.630 ,3,0,4.,4.8,264.,4.8,0.,4.8,0.,4.8
1979-03-10 18:14:57.430 ,3,0,2.,4.8,304.,4.8,0.,4.8,0.,4.8
1979-03-10 18:15:02.230 ,3,0,3.,4.8,296.,4.8,0.,4.8,0.,4.8
1979-03-10 18:15:07.030 ,3,0,2.,4.8,320.,4.8,0.,4.8,0.,4.8
1979-03-10 18:15:11.830 ,2,0,2.,4.8,264.,4.8,0.,4.8,0.,4.8
1979-03-10 18:15:16.630 ,2,0,2.,4.8,252.,4.8,0.,4.8,0.,4.8
1979-03-10 18:15:21.430 ,2,0,6.,4.8,312.,4.8,0.,4.8,0.,4.8
1979-03-10 18:15:26.230 ,2,0,4.,4.8,312.,4.8,0.,4.8,0.,4.8
1979-03-10 18:15:31.030 ,2,0,3.,4.8,312.,4.8,0.,4.8,0.,4.8
1979-03-10 18:15:35.830 ,1,0,4.,4.8,280.,4.8,0.,4.8,0.,4.8
1979-03-10 18:15:40.630 ,1,0,4.,4.8,288.,4.8,0.,4.8,0.,4.8
1979-03-10 18:15:45.430 ,1,0,3.,4.8,320.,4.8,0.,4.8,0.,4.8
1979-03-10 18:15:50.230 ,1,0,4.,4.8,280.,4.8,0.,4.8,0.,4.8
1979-03-10 18:15:55.030 ,1,0,3.,4.8,296.,4.8,0.,4.8,0.,4.8
1979-03-10 18:15:59.830 ,0,0,3.,4.8,296.,4.8,0.,4.8,0.,4.8
1979-03-10 18:16:04.630 ,0,0,4.,4.8,288.,4.8,0.,4.8,0.,4.8
1979-03-10 18:16:09.430 ,0,0,3.,4.8,256.,4.8,0.,4.8,0.,4.8
1979-03-10 18:16:14.230 ,0,0,2.,4.8,280.,4.8,0.,4.8,0.,4.8
1979-03-10 18:16:19.030 ,0,0,3.,4.8,256.,4.8,0.,4.8,0.,4.8
1979-03-10 18:16:23.830 ,0,0,9.,4.8,320.,4.8,1.,4.8,0.,4.8
1979-03-10 18:16:28.630 ,0,0,3.,4.8,296.,4.8,0.,4.8,0.,4.8
1979-03-10 18:16:33.430 ,0,0,1.,4.8,272.,4.8,0.,4.8,0.,4.8
1979-03-10 18:16:38.230 ,0,0,3.,4.8,304.,4.8,0.,4.8,0.,4.8
1979-03-10 18:16:43.030 ,0,0,3.,4.8,304.,4.8,0.,4.8,0.,4.8
1979-03-10 18:16:47.830 ,1,0,5.,4.8,320.,4.8,0.,4.8,0.,4.8
1979-03-10 18:16:52.630 ,1,0,4.,4.8,320.,4.8,0.,4.8,0.,4.8
1979-03-10 18:16:57.430 ,1,0,3.,4.8,296.,4.8,0.,4.8,0.,4.8
1979-03-10 18:17:02.230 ,1,0,1.,4.8,288.,4.8,0.,4.8,0.,4.8
1979-03-10 18:17:07.030 ,1,0,4.,4.8,272.,4.8,0.,4.8,0.,4.8
1979-03-10 18:17:11.830 ,2,0,2.,4.8,264.,4.8,0.,4.8,0.,4.8
1979-03-10 18:17:16.630 ,2,0,2.,4.8,264.,4.8,0.,4.8,0.,4.8
1979-03-10 18:17:21.430 ,2,0,6.,4.8,280.,4.8,0.,4.8,0.,4.8
1979-03-10 18:17:26.230 ,2,0,2.,4.8,244.,4.8,0.,4.8,0.,4.8
1979-03-10 18:17:31.030 ,2,0,5.,4.8,264.,4.8,0.,4.8,0.,4.8
1979-03-10 18:17:35.830 ,3,0,4.,4.8,264.,4.8,0.,4.8,0.,4.8
1979-03-10 18:17:40.630 ,3,0,2.,4.8,256.,4.8,0.,4.8,0.,4.8
1979-03-10 18:17:45.430 ,3,0,4.,4.8,264.,4.8,0.,4.8,0.,4.8
1979-03-10 18:17:50.230 ,3,0,3.,4.8,256.,4.8,0.,4.8,0.,4.8
1979-03-10 18:17:55.030 ,3,0,3.,4.8,256.,4.8,0.,4.8,0.,4.8
1979-03-10 18:17:59.830 ,4,0,4.,4.8,236.,4.8,0.,4.8,0.,4.8
1979-03-10 18:18:04.630 ,4,0,3.,4.8,244.,4.8,0.,4.8,0.,4.8
1979-03-10 18:18:09.430 ,4,0,3.,4.8,256.,4.8,0.,4.8,0.,4.8
1979-03-10 18:18:14.230 ,4,0,5.,4.8,256.,4.8,0.,4.8,0.,4.8
1979-03-10 18:18:19.030 ,4,0,3.,4.8,264.,4.8,0.,4.8,0.,4.8
1979-03-10 18:18:23.830 ,5,0,2.,4.8,244.,4.8,0.,4.8,0.,4.8
1979-03-10 18:18:28.630 ,5,0,3.,4.8,220.,4.8,0.,4.8,0.,4.8
1979-03-10 18:18:33.430 ,5,0,8.,4.8,264.,4.8,0.,4.8,0.,4.8
1979-03-10 18:18:38.230 ,5,0,2.,4.8,244.,4.8,0.,4.8,0.,4.8
1979-03-10 18:18:43.030 ,5,0,5.,4.8,240.,4.8,0.,4.8,0.,4.8
1979-03-10 18:18:47.830 ,6,0,5.,4.8,216.,4.8,0.,4.8,0.,4.8
1979-03-10 18:18:52.630 ,6,0,2.,4.8,264.,4.8,0.,4.8,0.,4.8
1979-03-10 18:18:57.430 ,6,0,5.,4.8,220.,4.8,0.,4.8,0.,4.8
1979-03-10 18:19:02.230 ,6,0,0.,4.8,228.,4.8,0.,4.8,0.,4.8
1979-03-10 18:19:07.030 ,6,0,3.,4.8,244.,4.8,0.,4.8,0.,4.8
1979-03-10 18:19:11.830 ,7,0,3.,4.8,252.,4.8,0.,4.8,0.,4.8
1979-03-10 18:19:16.630 ,7,0,6.,4.8,244.,4.8,0.,4.8,0.,4.8
1979-03-10 18:19:21.430 ,7,0,3.,4.8,248.,4.8,0.,4.8,0.,4.8
1979-03-10 18:19:26.230 ,7,0,2.,4.8,256.,4.8,0.,4.8,0.,4.8
1979-03-10 18:19:31.030 ,7,0,3.,4.8,244.,4.8,0.,4.8,0.,4.8
1979-03-10 18:19:35.830 ,7,0,6.,4.8,212.,4.8,0.,4.8,0.,4.8
1979-03-10 18:19:40.630 ,7,0,2.,4.8,248.,4.8,0.,4.8,0.,4.8
1979-03-10 18:19:45.430 ,7,0,1.,4.8,228.,4.8,0.,4.8,0.,4.8
1979-03-10 18:19:50.230 ,7,0,0.,4.8,244.,4.8,0.,4.8,0.,4.8
1979-03-10 18:19:55.030 ,7,0,6.,4.8,208.,4.8,0.,4.8,0.,4.8
1979-03-10 18:19:59.830 ,6,0,3.,4.8,236.,4.8,0.,4.8,0.,4.8
1979-03-10 18:20:04.630 ,6,0,4.,4.8,240.,4.8,0.,4.8,0.,4.8
1979-03-10 18:20:09.430 ,6,0,3.,4.8,252.,4.8,0.,4.8,0.,4.8
1979-03-10 18:20:14.230 ,6,0,4.,4.8,232.,4.8,0.,4.8,0.,4.8
1979-03-10 18:20:19.030 ,6,0,4.,4.8,244.,4.8,0.,4.8,0.,4.8
1979-03-10 18:20:23.830 ,5,0,5.,4.8,264.,4.8,0.,4.8,0.,4.8
1979-03-10 18:20:28.630 ,5,0,2.,4.8,220.,4.8,0.,4.8,0.,4.8
1979-03-10 18:20:33.430 ,5,0,4.,4.8,232.,4.8,0.,4.8,0.,4.8
1979-03-10 18:20:38.230 ,5,0,,0,,0,,0,,0
1979-03-10 18:20:43.030 ,5,0,5.,4.8,280.,4.8,0.,4.8,0.,4.8
1979-03-10 18:20:47.830 ,4,0,3.,4.8,248.,4.8,0.,4.8,0.,4.8
1979-03-10 18:20:52.630 ,4,0,5.,4.8,264.,4.8,0.,4.8,0.,4.8
1979-03-10 18:20:57.430 ,4,0,2.,4.8,256.,4.8,0.,4.8,0.,4.8
1979-03-10 18:21:02.230 ,4,0,2.,4.8,264.,4.8,0.,4.8,0.,4.8
1979-03-10 18:21:07.030 ,4,0,1.,4.8,244.,4.8,0.,4.8,0.,4.8
1979-03-10 18:21:11.830 ,3,0,7.,4.8,228.,4.8,0.,4.8,0.,4.8
1979-03-10 18:21:16.630 ,3,0,2.,4.8,248.,4.8,0.,4.8,0.,4.8
1979-03-10 18:21:21.430 ,3,0,3.,4.8,272.,4.8,0.,4.8,0.,4.8
1979-03-10 18:21:26.230 ,3,0,0.,4.8,264.,4.8,0.,4.8,0.,4.8
1979-03-10 18:21:31.030 ,3,0,1.,4.8,240.,4.8,0.,4.8,0.,4.8
1979-03-10 18:21:35.830 ,2,0,4.,4.8,220.,4.8,0.,4.8,0.,4.8
1979-03-10 18:21:40.630 ,2,0,0.,4.8,248.,4.8,0.,4.8,0.,4.8
1979-03-10 18:21:45.430 ,2,0,3.,4.8,256.,4.8,0.,4.8,0.,4.8
1979-03-10 18:21:50.230 ,2,0,3.,4.8,264.,4.8,0.,4.8,0.,4.8
1979-03-10 18:21:55.030 ,2,0,6.,4.8,240.,4.8,0.,4.8,0.,4.8
1979-03-10 18:21:59.830 ,1,0,3.,4.8,236.,4.8,0.,4.8,0.,4.8
1979-03-10 18:22:04.630 ,1,0,2.,4.8,220.,4.8,0.,4.8,0.,4.8
1979-03-10 18:22:09.430 ,1,0,3.,4.8,232.,4.8,0.,4.8,0.,4.8
1979-03-10 18:22:14.230 ,1,0,3.,4.8,248.,4.8,0.,4.8,0.,4.8
1979-03-10 18:22:19.030 ,1,0,1.,4.8,212.,4.8,0.,4.8,0.,4.8
1979-03-10 18:22:23.830 ,0,0,6.,4.8,264.,4.8,0.,4.8,0.,4.8
1979-03-10 18:22:28.630 ,0,0,1.,4.8,280.,4.8,0.,4.8,0.,4.8
1979-03-10 18:22:33.430 ,0,0,6.,4.8,344.,4.8,0.,4.8,0.,4.8
1979-03-10 18:22:38.230 ,0,0,7.,4.8,312.,4.8,0.,4.8,0.,4.8
1979-03-10 18:22:43.030 ,0,0,8.,4.8,344.,4.8,0.,4.8,0.,4.8
1979-03-10 18:22:47.830 ,0,0,5.,4.8,296.,4.8,0.,4.8,0.,4.8
1979-03-10 18:22:52.630 ,0,0,4.,4.8,296.,4.8,0.,4.8,0.,4.8
1979-03-10 18:22:57.430 ,0,0,7.,4.8,320.,4.8,0.,4.8,0.,4.8
1979-03-10 18:23:02.230 ,0,0,8.,4.8,328.,4.8,0.,4.8,0.,4.8
1979-03-10 18:23:07.030 ,0,0,9.,4.8,320.,4.8,0.,4.8,0.,4.8
1979-03-10 18:23:11.830 ,1,0,4.,4.8,360.,4.8,0.,4.8,0.,4.8
1979-03-10 18:23:16.630 ,1,0,4.,4.8,296.,4.8,0.,4.8,0.,4.8
1979-03-10 18:23:21.430 ,1,0,5.,4.8,320.,4.8,0.,4.8,0.,4.8
1979-03-10 18:23:26.230 ,1,0,8.,4.8,320.,4.8,0.,4.8,0.,4.8
1979-03-10 18:23:31.030 ,1,0,2.,4.8,344.,4.8,0.,4.8,0.,4.8
1979-03-10 18:23:35.830 ,2,0,2.,4.8,344.,4.8,0.,4.8,0.,4.8
1979-03-10 18:23:40.630 ,2,0,6.,4.8,376.,4.8,0.,4.8,0.,4.8
1979-03-10 18:23:45.430 ,2,0,3.,4.8,360.,4.8,0.,4.8,0.,4.8
1979-03-10 18:23:50.230 ,2,0,4.,4.8,312.,4.8,0.,4.8,0.,4.8
1979-03-10 18:23:55.030 ,2,0,2.,4.8,320.,4.8,0.,4.8,0.,4.8
1979-03-10 18:23:59.830 ,3,0,9.,4.8,328.,4.8,0.,4.8,0.,4.8
1979-03-10 18:24:04.630 ,3,0,11.,4.8,328.,4.8,0.,4.8,0.,4.8
1979-03-10 18:24:09.430 ,3,0,4.,4.8,312.,4.8,0.,4.8,0.,4.8
1979-03-10 18:24:14.230 ,3,0,6.,4.8,352.,4.8,0.,4.8,0.,4.8
1979-03-10 18:24:19.030 ,3,0,1.,4.8,304.,4.8,0.,4.8,0.,4.8
1979-03-10 18:24:23.830 ,4,0,6.,4.8,320.,4.8,0.,4.8,0.,4.8
1979-03-10 18:24:28.630 ,4,0,6.,4.8,280.,4.8,0.,4.8,0.,4.8
1979-03-10 18:24:33.430 ,4,0,6.,4.8,328.,4.8,0.,4.8,0.,4.8
1979-03-10 18:24:38.230 ,4,0,4.,4.8,336.,4.8,0.,4.8,0.,4.8
1979-03-10 18:24:43.030 ,4,0,1.,4.8,320.,4.8,0.,4.8,0.,4.8
1979-03-10 18:24:47.830 ,5,0,7.,4.8,328.,4.8,0.,4.8,0.,4.8
1979-03-10 18:24:52.630 ,5,0,5.,4.8,376.,4.8,0.,4.8,0.,4.8
1979-03-10 18:24:57.430 ,5,0,3.,4.8,328.,4.8,0.,4.8,0.,4.8
1979-03-10 18:25:02.230 ,5,0,10.,4.8,344.,4.8,0.,4.8,0.,4.8
1979-03-10 18:25:07.030 ,5,0,3.,4.8,352.,4.8,0.,4.8,0.,4.8
1979-03-10 18:25:11.830 ,6,0,9.,4.8,344.,4.8,0.,4.8,0.,4.8
1979-03-10 18:25:16.630 ,6,0,3.,4.8,352.,4.8,0.,4.8,0.,4.8
1979-03-10 18:25:21.430 ,6,0,3.,4.8,320.,4.8,0.,4.8,0.,4.8
1979-03-10 18:25:26.230 ,6,0,9.,4.8,328.,4.8,0.,4.8,0.,4.8
1979-03-10 18:25:31.030 ,6,0,8.,4.8,344.,4.8,0.,4.8,0.,4.8
1979-03-10 18:25:35.830 ,7,0,4.,4.8,344.,4.8,0.,4.8,0.,4.8
1979-03-10 18:25:40.630 ,7,0,10.,4.8,312.,4.8,0.,4.8,0.,4.8
1979-03-10 18:25:45.430 ,7,0,4.,4.8,344.,4.8,0.,4.8,0.,4.8
1979-03-10 18:25:50.230 ,7,0,4.,4.8,296.,4.8,0.,4.8,0.,4.8
1979-03-10 18:25:55.030 ,7,0,6.,4.8,352.,4.8,0.,4.8,0.,4.8
1979-03-10 18:25:59.830 ,7,0,2.,4.8,312.,4.8,0.,4.8,0.,4.8
1979-03-10 18:26:04.630 ,7,0,1.,4.8,264.,4.8,0.,4.8,0.,4.8
1979-03-10 18:26:09.430 ,7,0,9.,4.8,304.,4.8,0.,4.8,0.,4.8
1979-03-10 18:26:14.230 ,7,0,4.,4.8,344.,4.8,0.,4.8,0.,4.8
1979-03-10 18:26:19.030 ,7,0,1.,4.8,336.,4.8,0.,4.8,0.,4.8
1979-03-10 18:26:23.830 ,6,0,5.,4.8,312.,4.8,0.,4.8,0.,4.8
1979-03-10 18:26:28.630 ,6,0,10.,4.8,320.,4.8,0.,4.8,0.,4.8
1979-03-10 18:26:33.430 ,6,0,4.,4.8,360.,4.8,0.,4.8,0.,4.8
1979-03-10 18:26:38.230 ,6,0,6.,4.8,328.,4.8,0.,4.8,0.,4.8
1979-03-10 18:26:43.030 ,6,0,4.,4.8,336.,4.8,0.,4.8,0.,4.8
1979-03-10 18:26:47.830 ,5,0,11.,4.8,336.,4.8,0.,4.8,0.,4.8
1979-03-10 18:26:52.630 ,5,0,6.,4.8,368.,4.8,0.,4.8,0.,4.8
1979-03-10 18:26:57.430 ,5,0,3.,4.8,320.,4.8,0.,4.8,0.,4.8
1979-03-10 18:27:02.230 ,5,0,10.,4.8,376.,4.8,0.,4.8,0.,4.8
1979-03-10 18:27:07.030 ,5,0,6.,4.8,344.,4.8,0.,4.8,0.,4.8
1979-03-10 18:27:11.830 ,4,0,2.,4.8,352.,4.8,0.,4.8,0.,4.8
1979-03-10 18:27:16.630 ,4,0,2.,4.8,312.,4.8,0.,4.8,0.,4.8
1979-03-10 18:27:21.430 ,4,0,6.,4.8,304.,4.8,0.,4.8,0.,4.8
1979-03-10 18:27:26.230 ,4,0,5.,4.8,328.,4.8,0.,4.8,0.,4.8
1979-03-10 18:27:31.030 ,4,0,3.,4.8,344.,4.8,0.,4.8,0.,4.8
1979-03-10 18:27:35.830 ,3,0,5.,4.8,312.,4.8,0.,4.8,0.,4.8
1979-03-10 18:27:40.630 ,3,0,2.,4.8,320.,4.8,0.,4.8,0.,4.8
1979-03-10 18:27:45.430 ,3,0,7.,4.8,328.,4.8,0.,4.8,0.,4.8
1979-03-10 18:27:50.230 ,3,0,4.,4.8,328.,4.8,0.,4.8,0.,4.8
1979-03-10 18:27:55.030 ,3,0,2.,4.8,312.,4.8,0.,4.8,0.,4.8
1979-03-10 18:27:59.830 ,2,0,1.,4.8,312.,4.8,0.,4.8,0.,4.8
1979-03-10 18:28:04.630 ,2,0,3.,4.8,312.,4.8,0.,4.8,0.,4.8
1979-03-10 18:28:09.430 ,2,0,1.,4.8,320.,4.8,0.,4.8,0.,4.8
1979-03-10 18:28:14.230 ,2,0,6.,4.8,320.,4.8,0.,4.8,0.,4.8
1979-03-10 18:28:19.030 ,2,0,2.,4.8,328.,4.8,0.,4.8,0.,4.8
1979-03-10 18:28:23.830 ,1,0,9.,4.8,328.,4.8,0.,4.8,0.,4.8
1979-03-10 18:28:28.630 ,1,0,5.,4.8,296.,4.8,0.,4.8,0.,4.8
1979-03-10 18:28:33.430 ,1,0,7.,4.8,248.,4.8,0.,4.8,0.,4.8
1979-03-10 18:28:38.230 ,1,0,4.,4.8,272.,4.8,0.,4.8,0.,4.8
1979-03-10 18:28:43.030 ,1,0,9.,4.8,328.,4.8,0.,4.8,0.,4.8
1979-03-10 18:28:47.830 ,0,0,2.,4.8,288.,4.8,0.,4.8,0.,4.8
1979-03-10 18:28:52.630 ,0,0,6.,4.8,336.,4.8,0.,4.8,0.,4.8
1979-03-10 18:28:57.430 ,0,0,3.,4.8,280.,4.8,0.,4.8,0.,4.8
1979-03-10 18:29:02.230 ,0,0,4.,4.8,328.,4.8,0.,4.8,0.,4.8
1979-03-10 18:29:07.030 ,0,0,8.,4.8,304.,4.8,0.,4.8,0.,4.8
1979-03-10 18:29:11.830 ,0,0,4.,4.8,272.,4.8,0.,4.8,0.,4.8
1979-03-10 18:29:16.630 ,0,0,6.,4.8,312.,4.8,0.,4.8,0.,4.8
1979-03-10 18:29:21.430 ,0,0,9.,4.8,280.,4.8,0.,4.8,0.,4.8
1979-03-10 18:29:26.230 ,0,0,7.,4.8,280.,4.8,0.,4.8,0.,4.8
1979-03-10 18:29:31.030 ,0,0,5.,4.8,328.,4.8,0.,4.8,0.,4.8
1979-03-10 18:29:35.830 ,1,0,6.,4.8,336.,4.8,0.,4.8,0.,4.8
1979-03-10 18:29:40.630 ,1,0,5.,4.8,312.,4.8,0.,4.8,0.,4.8
1979-03-10 18:29:45.430 ,1,0,4.,4.8,344.,4.8,0.,4.8,0.,4.8
1979-03-10 18:29:50.230 ,1,0,6.,4.8,328.,4.8,0.,4.8,0.,4.8
1979-03-10 18:29:55.030 ,1,0,6.,4.8,352.,4.8,0.,4.8,0.,4.8
1979-03-10 18:29:59.830 ,2,0,3.,4.8,320.,4.8,0.,4.8,0.,4.8
1979-03-10 18:30:04.630 ,2,0,4.,4.8,280.,4.8,0.,4.8,0.,4.8
1979-03-10 18:30:09.430 ,2,0,7.,4.8,336.,4.8,0.,4.8,0.,4.8
1979-03-10 18:30:14.230 ,2,0,9.,4.8,288.,4.8,0.,4.8,0.,4.8
1979-03-10 18:30:19.030 ,2,0,4.,4.8,296.,4.8,0.,4.8,0.,4.8
1979-03-10 18:30:47.830 ,4,0,0.,4.8,336.,4.8,0.,4.8,0.,4.8
1979-03-10 18:30:52.630 ,4,0,5.,4.8,336.,4.8,0.,4.8,0.,4.8
1979-03-10 18:30:57.430 ,4,0,8.,4.8,336.,4.8,0.,4.8,0.,4.8
1979-03-10 18:31:02.230 ,4,0,,0,,0,,0,,0
1979-03-10 18:31:07.030 ,4,0,1.,4.8,328.,4.8,0.,4.8,0.,4.8
1979-03-10 18:31:11.830 ,5,0,6.,4.8,312.,4.8,0.,4.8,0.,4.8
1979-03-10 18:31:16.630 ,5,0,7.,4.8,328.,4.8,0.,4.8,0.,4.8
1979-03-10 18:31:21.430 ,5,0,2.,4.8,312.,4.8,0.,4.8,0.,4.8
1979-03-10 18:31:26.230 ,5,0,7.,4.8,312.,4.8,0.,4.8,0.,4.8
1979-03-10 18:31:31.030 ,5,0,7.,4.8,344.,4.8,0.,4.8,0.,4.8
1979-03-10 18:31:35.830 ,6,0,8.,4.8,312.,4.8,0.,4.8,0.,4.8
1979-03-10 18:31:40.630 ,6,0,3.,4.8,360.,4.8,0.,4.8,0.,4.8
1979-03-10 18:31:45.430 ,6,0,8.,4.8,360.,4.8,0.,4.8,0.,4.8
1979-03-10 18:31:50.230 ,6,0,6.,4.8,312.,4.8,0.,4.8,0.,4.8
1979-03-10 18:31:55.030 ,6,0,5.,4.8,224.,4.8,0.,4.8,0.,4.8
1979-03-10 18:31:59.830 ,7,0,4.,4.8,280.,4.8,0.,4.8,0.,4.8
1979-03-10 18:32:04.630 ,7,0,8.,4.8,248.,4.8,0.,4.8,0.,4.8
1979-03-10 18:32:09.430 ,7,0,4.,4.8,252.,4.8,0.,4.8,0.,4.8
1979-03-10 18:32:14.230 ,7,0,10.,4.8,252.,4.8,0.,4.8,0.,4.8
1979-03-10 18:32:19.030 ,7,0,4.,4.8,248.,4.8,0.,4.8,0.,4.8
1979-03-10 18:32:23.830 ,7,0,6.,4.8,244.,4.8,0.,4.8,0.,4.8
1979-03-10 18:32:28.630 ,7,0,4.,4.8,256.,4.8,0.,4.8,0.,4.8
1979-03-10 18:32:33.430 ,7,0,6.,4.8,264.,4.8,0.,4.8,0.,4.8
1979-03-10 18:32:38.230 ,7,0,10.,4.8,224.,4.8,0.,4.8,0.,4.8